Regional Weather Roundup
Issued by NWS

Home | Current Version | Previous Version | Text Only | Print | Product List | Glossary On
Versions: 1 2 3 4 5 6 7 8 9 10 11 12 13 14 15 16 17 18 19 20 21 22 23 24 25 26 27 28 29 30 31 32 33 34 35 36 37 38 39 40 41 42 43 44 45 46 47 48 49 50
000
ASUS44 KLIX 130110
RWRLA
LOUISIANA WEATHER ROUNDUP
NATIONAL WEATHER SERVICE NEW ORLEANS LA
700 PM CST FRI FEB 12 2016

NOTE: "FAIR" INDICATES FEW OR NO CLOUDS BELOW 12,000 FEET WITH NO
      SIGNIFICANT WEATHER AND/OR OBSTRUCTIONS TO VISIBILITY.
      SKY/WX - SKY CONDITION AND SIGNIFICANT WEATHER.
      TMP - AIR TEMPERATURE.    DP   - DEWPOINT TEMPERATURE.
      RH  - RELATIVE HUMIDITY.  PRES - PRESSURE.
      HX  - HEAT INDEX.         WCI  - WIND CHILL INDEX.

*  THESE STATIONS ARE NOT NWS OR FAA STATIONS AND ARE NOT UNDER
   NWS QUALITY CONTROL.

LAZ040-048-061>063-065-066-069-130200-
SOUTHEAST LOUISIANA

CITY           SKY/WX    TMP DP  RH WIND       PRES   REMARKS
N.O. AUDUBON   NOT AVBL
N.O. INTL ARPT PTCLDY    66  51  58 NW6       30.22R
N.O. LAKEFRONT CLEAR     60  54  80 W8        30.22R
N.O. DOWNTOWN* NOT AVBL
RESERVE*       FAIR      70  53  54 NW3       30.22R
SLIDELL        PTCLDY    63  55  75 CALM      30.21R
BATON ROUGE    PTCLDY    63  53  70 NW3       30.22R
BOOTHVILLE     CLEAR     63  59  87 W9        30.22S
BELLE CHASSE   PTCLDY    60  53  77 SW5       30.21R
BOGALUSA*        N/A     61  51  71 N3        30.23R
GALLIANO*      CLEAR     66  59  79 W6        30.23R
NEW ROADS*     FAIR      64  55  73 CALM      30.23R
GONZALES*      FAIR      65  54  68 CALM      30.22R
HAMMOND*       CLEAR     61  52  72 CALM      30.22R
HOUMA*         CLEAR     63  58  86 W5        30.23R
PORT FOURCHON* CLEAR     63  59  88 W10       30.24R

$$

LAZ041-044-053-054-130200-
SOUTHWEST LOUISIANA

CITY           SKY/WX    TMP DP  RH WIND       PRES   REMARKS
LAKE CHARLES   CLEAR     63  58  83 SW5       30.23R
LAFAYETTE      CLEAR     66  56  70 SW8       30.23R
PATTERSON      CLEAR     63  55  77 SW9       30.24R
SALT POINT       N/A     57  56  96 SW3       30.23R
NEW IBERIA     CLEAR     64  57  78 W7        30.23R
CHENAULT AIRPK CLEAR     64  59  82 CALM      30.23R

$$

LAZ027-028-130200-
CENTRAL LOUISIANA

CITY           SKY/WX    TMP DP  RH WIND       PRES   REMARKS
FORT POLK      CLEAR     66  52  59 N7        30.24R
ALEXANDRIA INT CLEAR     66  42  41 NE8       30.25R
ALEXANDRIA     CLEAR     65  41  41 NE3       30.27R

$$

LAZ001-002-130200-
NORTHWEST LOUISIANA

CITY           SKY/WX    TMP DP  RH WIND       PRES   REMARKS
SHREVEPORT     PTCLDY    58  38  47 NW3       30.28R
BARKSDALE AFB  CLEAR     60  35  39 NW3       30.28R HAZE
DTN SHREVEPORT CLEAR     60  36  40 CALM      30.29R

$$

LAZ014-016-130200-
NORTHEAST LOUISIANA

CITY           SKY/WX    TMP DP  RH WIND       PRES   REMARKS
MONROE         CLEAR     57  40  52 NE12      30.30R
TALLULAH       CLEAR     57  37  47 N9        30.30R

$$




USA.gov is the U.S. government's official web portal to all federal, state and local government web resources and services.